[[{"header":{"parameterUnit":"m.s-1","parameterCategory":1,"la1":30.2991,"la2":30.254,"lo1":-89.0895,"lo2":-89.0444,"dy":0.0017,"dx":0.0017,"nx":28,"ny":28,"refTime":"2023-08-19T09:00:00:Z","depth":0,"parameterNumber":2,"parameterNumberName":"U-component_of_WINDS"},"data":[0,0,0,0,0,0,0,0,0,0,0,0,0,0,0,0,0,0,0,0,0,0,0,0,0,0,0,0,0,0,0,0,0,0,0,0,0,0,0,0,0,0,0,0,0,0,0,0,0,0,0,0,0,0,0,0,0,0,-0.231,-0.2311,0,-0.2393,-0.2394,-0.2395,-0.2473,-0.2474,-0.2475,-0.2476,-0.256,-0.2561,-0.2562,0,0,0,0,0,0,0,0,0,0,0,0,0,-0.2218,-0.2219,-0.231,-0.2311,-0.2312,-0.2393,-0.2394,-0.2395,-0.2473,-0.2474,-0.2475,-0.2476,-0.2559,-0.2561,-0.2562,0,0,0,0,0,0,0,0,0,0,0,0,0,-0.2275,-0.2219,-0.231,-0.2361,-0.2366,-0.2392,-0.2394,-0.2395,-0.2472,-0.2474,-0.2475,-0.2477,-0.2559,-0.2561,-0.2562,-0.2545,0,0,-0.2569,-0.2569,0,0,0,0,0,0,0,0,-0.2271,-0.2278,-0.2352,-0.2357,-0.2363,-0.2424,-0.2392,-0.2445,-0.2472,-0.2432,-0.2476,-0.2477,-0.2513,-0.2519,-0.2531,-0.2549,-0.2553,-0.2569,-0.257,-0.2571,-0.2571,0,0,0,0,0,0,0,-0.2267,-0.2275,-0.2343,-0.2353,-0.236,-0.2379,-0.2388,-0.2403,-0.2463,-0.2436,-0.2441,-0.245,-0.2517,-0.2529,-0.2534,-0.2554,-0.2569,-0.257,-0.2572,-0.2572,-0.2562,-0.2561,0,0,0,0,0,0,-0.2256,-0.2271,-0.234,-0.2345,-0.232,-0.2379,-0.239,-0.2403,-0.2463,-0.2474,-0.2449,-0.2454,-0.2525,-0.2531,-0.2537,-0.2522,-0.2571,-0.2573,-0.2574,-0.2563,-0.2562,-0.256,0,0,0,0,0,0,-0.2253,-0.2261,-0.2337,-0.231,-0.2321,-0.2379,-0.2393,-0.2404,-0.2417,-0.2473,-0.2484,-0.2451,-0.2526,-0.2534,-0.2543,-0.2526,-0.2573,-0.2575,-0.2565,-0.2563,-0.2561,-0.249,0,0,0,0,0,0,-0.2251,-0.226,-0.2254,-0.2309,-0.2322,-0.2341,-0.2392,-0.2404,-0.242,-0.2427,-0.2478,-0.2488,-0.2528,-0.2539,-0.2545,-0.2529,-0.2577,-0.2567,-0.2564,-0.2562,-0.2494,-0.2485,-0.2478,0,0,0,0,0,-0.2247,-0.2231,-0.2254,-0.2262,-0.2316,-0.234,-0.2347,-0.2394,-0.2418,-0.2413,-0.2449,-0.2486,-0.2526,-0.254,-0.2546,-0.2531,-0.2568,-0.2565,-0.2562,-0.2497,-0.2487,-0.2478,0,0,0,0,0,0,-0.2172,-0.2239,-0.2265,-0.2266,-0.2297,-0.2353,-0.2348,-0.2382,-0.2406,-0.2412,-0.2468,-0.2479,-0.2481,-0.2507,-0.2521,-0.2517,-0.2552,-0.255,-0.2501,-0.2492,-0.2484,-0.2478,-0.2578,0,0,0,0,0,-0.2156,-0.217,-0.2227,-0.2223,-0.2237,-0.2289,-0.2302,-0.2335,-0.2369,-0.2382,-0.2419,-0.2451,-0.247,-0.2482,-0.2503,-0.2497,-0.251,-0.249,-0.2482,-0.2475,-0.2473,-0.2472,-0.2464,-0.2549,-0.2549,-0.2549,0,0,-0.2123,-0.2161,-0.2166,-0.2209,-0.2237,-0.225,-0.23,-0.2312,-0.2322,-0.2384,-0.2395,-0.2423,-0.2461,-0.2462,-0.2465,-0.2484,-0.2452,-0.2471,-0.2465,-0.2467,-0.2468,-0.246,-0.2453,-0.2547,-0.2547,-0.2548,0,0,-0.2069,-0.2098,-0.2098,-0.2125,-0.2166,-0.2201,-0.2201,-0.2252,-0.2273,-0.2285,-0.2332,-0.2344,-0.2376,-0.2402,-0.242,-0.2374,-0.2409,-0.2379,-0.2338,-0.2337,-0.233,-0.2325,-0.2309,-0.2303,-0.2377,-0.2376,-0.2376,0,-0.2022,-0.2044,-0.2094,-0.2103,-0.212,-0.2177,-0.2177,-0.22,-0.2246,-0.2256,-0.2277,-0.2319,-0.2349,-0.2357,-0.2346,-0.2357,-0.2359,-0.2374,-0.2327,-0.2322,-0.2318,-0.2304,-0.2298,-0.2373,-0.2373,-0.2373,-0.2374,0,-0.1985,-0.1999,-0.1994,-0.2038,-0.2054,-0.2058,-0.2108,-0.2119,-0.215,-0.2183,-0.2193,-0.2231,-0.2261,-0.2265,-0.2295,-0.2277,-0.2288,-0.2317,-0.2353,-0.2305,-0.2293,-0.2288,-0.2367,-0.2368,-0.237,-0.237,0,0,-0.1889,-0.1958,-0.1956,-0.1976,-0.2025,-0.2037,-0.2043,-0.2073,-0.2081,-0.211,-0.2118,-0.2143,-0.217,-0.219,-0.2223,-0.2222,-0.2184,-0.2251,-0.2253,-0.2238,-0.2168,-0.2147,-0.214,-0.2207,-0.2206,-0.2206,-0.2165,0,-0.1844,-0.186,-0.1904,-0.1907,-0.1921,-0.1973,-0.1979,-0.201,-0.204,-0.2056,-0.2089,-0.2107,-0.214,-0.2152,-0.2153,-0.2189,-0.2171,-0.2192,-0.2215,-0.2215,-0.2205,-0.2133,-0.2112,-0.2071,-0.216,-0.2159,-0.2159,0,-0.1795,-0.1821,-0.1824,-0.1873,-0.188,-0.1885,-0.1915,-0.193,-0.1965,-0.1987,-0.2008,-0.2045,-0.2055,-0.2087,-0.2101,-0.2115,-0.2126,-0.2145,-0.2144,-0.215,-0.2185,-0.2138,-0.2059,-0.2054,-0.2152,-0.2152,-0.2153,0,-0.1725,-0.1761,-0.1768,-0.1784,-0.184,-0.1842,-0.1865,-0.1902,-0.1917,-0.1943,-0.1953,-0.1979,-0.1994,-0.2014,-0.2057,-0.2077,-0.2067,-0.2102,-0.2086,-0.2085,-0.2083,-0.2083,-0.2007,-0.2087,-0.2087,-0.2087,-0.2088,0,-0.1672,-0.1673,-0.1738,-0.1742,-0.1744,-0.1794,-0.1795,-0.1823,-0.1855,-0.1866,-0.1912,-0.1921,-0.1977,-0.1992,-0.2026,-0.2033,-0.2039,-0.2057,-0.2067,-0.2054,-0.2052,-0.2064,-0.2068,-0.2086,-0.2086,-0.2087,-0.2087,0,-0.1596,-0.164,-0.1651,-0.1703,-0.1716,-0.1715,-0.176,-0.1766,-0.1798,-0.1811,-0.1817,-0.1867,-0.1888,-0.1932,-0.1964,-0.1987,-0.1986,-0.2002,-0.1974,-0.1981,-0.1962,-0.1964,-0.1892,-0.1886,-0.1968,-0.1968,-0.1967,0,-0.156,-0.1562,-0.1614,-0.1624,-0.1646,-0.1662,-0.1678,-0.1726,-0.174,-0.178,-0.1781,-0.1805,-0.1827,-0.1857,-0.1897,-0.1921,-0.1939,-0.1912,-0.1943,-0.1931,-0.194,-0.194,-0.1941,-0.1906,-0.1905,-0.1904,-0.1903,0,-0.1492,-0.1513,-0.1534,-0.1561,-0.1578,-0.1602,-0.1629,-0.1635,-0.169,-0.1703,-0.1724,-0.1741,-0.1774,-0.1797,-0.1828,-0.1852,-0.1887,-0.1893,-0.189,-0.1879,-0.1863,-0.1873,-0.1958,-0.1895,-0.1895,-0.1896,-0.1896,-0.1897,-0.1436,-0.144,-0.1478,-0.1499,-0.1523,-0.1547,-0.1555,-0.1588,-0.1607,-0.1638,-0.1665,-0.1684,-0.1719,-0.1764,-0.1785,-0.1801,-0.1818,-0.1814,-0.1814,-0.1812,-0.1808,-0.1859,-0.1806,-0.1806,-0.1807,-0.1807,-0.1807,0,-0.1372,-0.1398,-0.1417,-0.1453,-0.1469,-0.1499,-0.153,-0.1542,-0.1558,-0.1587,-0.1608,-0.1632,-0.1655,-0.1696,-0.1722,-0.1726,-0.1743,-0.1732,-0.1733,-0.1738,-0.179,-0.179,-0.1718,-0.1718,-0.1718,-0.1718,-0.1718,-0.1718,-0.1341,-0.1349,-0.1375,-0.1396,-0.1422,-0.1441,-0.1456,-0.1478,-0.1502,-0.1527,-0.1546,-0.1573,-0.1607,-0.1635,-0.1658,-0.1669,-0.1677,-0.1661,-0.1677,-0.1726,-0.1734,-0.1742,-0.1743,-0.1662,-0.1662,-0.1625,-0.1624,-0.1624]},{"header":{"parameterUnit":"m.s-1","parameterCategory":1,"la1":30.2991,"la2":30.254,"lo1":-89.0895,"lo2":-89.0444,"dy":0.0017,"dx":0.0017,"nx":28,"ny":28,"refTime":"2023-08-19T09:00:00:Z","depth":0,"parameterNumber":3,"parameterNumberName":"V-component_of_WINDS"},"data":[0,0,0,0,0,0,0,0,0,0,0,0,0,0,0,0,0,0,0,0,0,0,0,0,0,0,0,0,0,0,0,0,0,0,0,0,0,0,0,0,0,0,0,0,0,0,0,0,0,0,0,0,0,0,0,0,0,0,0.1374,0.1374,0,0.1324,0.1323,0.1323,0.1323,0.1324,0.1324,0.1325,0.127,0.1267,0.1265,0,0,0,0,0,0,0,0,0,0,0,0,0,0.1469,0.1467,0.1374,0.1374,0.1373,0.1324,0.1323,0.1322,0.1323,0.1324,0.1325,0.1325,0.127,0.1268,0.1265,0,0,0,0,0,0,0,0,0,0,0,0,0,0.1424,0.1466,0.1375,0.1368,0.1366,0.1324,0.1323,0.1322,0.1323,0.1324,0.1325,0.1326,0.1271,0.1268,0.1265,0.1225,0,0,0.1255,0.1254,0,0,0,0,0,0,0,0,0.1426,0.142,0.1369,0.1368,0.1367,0.1331,0.1336,0.129,0.1322,0.1339,0.1325,0.1326,0.1289,0.1284,0.1272,0.1222,0.122,0.1255,0.1253,0.1252,0.1251,0,0,0,0,0,0,0,0.1429,0.1422,0.1354,0.1368,0.1367,0.1366,0.1361,0.1327,0.1309,0.1338,0.1338,0.1332,0.1288,0.1275,0.1271,0.1219,0.1255,0.1252,0.125,0.1249,0.1134,0.1132,0,0,0,0,0,0,0.1434,0.1425,0.1356,0.1353,0.14,0.1363,0.1358,0.1341,0.1309,0.1305,0.1331,0.1332,0.128,0.1275,0.1269,0.122,0.1252,0.1249,0.1247,0.1135,0.1133,0.1132,0,0,0,0,0,0,0.1436,0.1428,0.1358,0.1389,0.138,0.1361,0.1342,0.134,0.1327,0.1304,0.1301,0.1322,0.1281,0.1274,0.1236,0.1218,0.1247,0.1244,0.1136,0.1134,0.1133,0.1121,0,0,0,0,0,0,0.1439,0.1429,0.1414,0.1389,0.1378,0.1326,0.1341,0.1338,0.1322,0.1323,0.1294,0.129,0.1281,0.1241,0.1233,0.1214,0.1242,0.1138,0.1135,0.1133,0.1123,0.1119,0.1116,0,0,0,0,0,0.1442,0.1412,0.1413,0.1405,0.136,0.1325,0.1319,0.131,0.132,0.1305,0.129,0.1291,0.1222,0.1237,0.1228,0.1208,0.1139,0.1136,0.1133,0.1124,0.112,0.1116,0,0,0,0,0,0,0.1435,0.1409,0.141,0.137,0.135,0.1326,0.1306,0.1306,0.1281,0.1283,0.1272,0.1265,0.1228,0.1214,0.1232,0.1168,0.1181,0.1177,0.1177,0.1173,0.1169,0.1173,0.1239,0,0,0,0,0,0.1429,0.1404,0.1382,0.135,0.134,0.1325,0.1309,0.1305,0.1283,0.1274,0.1256,0.1234,0.1207,0.119,0.1164,0.1122,0.1115,0.1103,0.11,0.1097,0.1093,0.1069,0.1063,0.1123,0.1123,0.1123,0,0,0.1415,0.1398,0.1383,0.1348,0.1332,0.1305,0.1317,0.1289,0.1269,0.1269,0.1232,0.1219,0.1194,0.1154,0.1135,0.1141,0.1075,0.1094,0.1092,0.1089,0.1066,0.106,0.1055,0.1122,0.1122,0.1122,0,0,0.1377,0.1363,0.1334,0.1318,0.1293,0.1284,0.1277,0.1252,0.1244,0.1208,0.1207,0.1183,0.1137,0.1119,0.1103,0.106,0.1059,0.1052,0.1032,0.1009,0.1005,0.1,0.0984,0.0978,0.1048,0.1048,0.1048,0,0.1363,0.1325,0.1318,0.129,0.1274,0.1275,0.1245,0.1229,0.1197,0.1186,0.1194,0.1136,0.1119,0.1075,0.1064,0.1052,0.1043,0.1054,0.1006,0.1002,0.0998,0.0982,0.0975,0.1047,0.1047,0.1047,0.1047,0,0.1308,0.1282,0.1261,0.1232,0.1214,0.1185,0.1173,0.1156,0.1153,0.1142,0.1105,0.1085,0.1054,0.1044,0.104,0.0999,0.1003,0.1009,0.1022,0.0991,0.0976,0.097,0.1046,0.1046,0.1046,0.1047,0,0,0.1262,0.1231,0.1223,0.121,0.1184,0.1162,0.1134,0.1105,0.109,0.1069,0.1043,0.1005,0.101,0.0993,0.0987,0.0967,0.0933,0.0975,0.0975,0.0967,0.0885,0.088,0.0873,0.0934,0.0932,0.0932,0.0887,0,0.122,0.117,0.1164,0.1118,0.1093,0.1094,0.1068,0.1049,0.1039,0.1015,0.1003,0.0976,0.0986,0.0975,0.0956,0.0941,0.0916,0.0945,0.0908,0.0907,0.0913,0.0865,0.0859,0.0817,0.0881,0.088,0.0879,0,0.1164,0.1142,0.1095,0.1073,0.1062,0.104,0.1013,0.0991,0.0969,0.0963,0.0945,0.0942,0.0911,0.0927,0.0884,0.0903,0.0888,0.0879,0.0877,0.0872,0.089,0.0857,0.0804,0.0797,0.087,0.087,0.0871,0,0.1134,0.1092,0.1059,0.1047,0.1021,0.1005,0.0993,0.0973,0.0956,0.0933,0.0922,0.0896,0.088,0.0859,0.0849,0.0862,0.0806,0.0821,0.0799,0.0799,0.0785,0.0786,0.0728,0.0778,0.0778,0.0779,0.0779,0,0.1087,0.1057,0.1045,0.1023,0.099,0.0984,0.0951,0.0939,0.0921,0.0897,0.0897,0.0874,0.0863,0.0838,0.083,0.0795,0.0788,0.0781,0.0779,0.078,0.0781,0.0769,0.0771,0.0777,0.0777,0.0778,0.0778,0,0.1046,0.1036,0.0999,0.0978,0.0972,0.0949,0.093,0.0909,0.09,0.0869,0.0862,0.0846,0.0817,0.0806,0.077,0.0765,0.0724,0.0725,0.0731,0.073,0.0707,0.0709,0.0638,0.0628,0.0687,0.0686,0.0686,0,0.1015,0.0993,0.097,0.0954,0.0942,0.0917,0.0901,0.0894,0.0876,0.0851,0.0833,0.0804,0.0781,0.0734,0.0719,0.0692,0.0691,0.0668,0.0687,0.0689,0.0689,0.069,0.0687,0.0664,0.0663,0.0663,0.0663,0,0.0962,0.0959,0.0936,0.0911,0.0892,0.0872,0.0853,0.084,0.083,0.081,0.0781,0.0763,0.0728,0.0699,0.0671,0.0658,0.0658,0.0657,0.065,0.065,0.0654,0.065,0.072,0.0658,0.0659,0.0659,0.0659,0.0659,0.0924,0.0904,0.0885,0.086,0.0845,0.0827,0.0806,0.0795,0.0771,0.0742,0.0739,0.0708,0.0687,0.065,0.0635,0.061,0.0616,0.0606,0.0603,0.06,0.0598,0.066,0.0605,0.0605,0.0605,0.0605,0.0606,0,0.087,0.0858,0.0835,0.0808,0.0788,0.0792,0.0771,0.0753,0.0726,0.0707,0.0685,0.0652,0.0624,0.0608,0.058,0.0562,0.0562,0.0555,0.0555,0.0552,0.0595,0.0603,0.0556,0.0556,0.0556,0.0556,0.0556,0.0556,0.0839,0.0805,0.08,0.0758,0.0746,0.0717,0.0704,0.0687,0.0672,0.0635,0.0613,0.0603,0.0585,0.0556,0.053,0.0526,0.0515,0.0508,0.0504,0.0544,0.0549,0.0554,0.0561,0.0506,0.0506,0.0462,0.0462,0.0462]}]]